Rbgn^[z[y[W
メイン
   新天体発見情報
     Comet C/2026 L1 (PANSTARRS)
投稿するにはまず登録を

スレッド表示 | 古いものから 前のトピック | 次のトピック | 下へ
投稿者 スレッド
佐藤裕久
投稿日時: 2026-6-16 21:55
モデレータ
登録日: 2005-6-12
居住地: 日本
投稿: 2697
オンライン
Comet C/2026 L1 (PANSTARRS)

R. Weryk (西オンタリオ大学,物理および天文学科)の通報によると、6月8日、HaleakalaにあるPan-
STARRS1の1.8-m Ritchey-Chretien反射望遠鏡で得た画像から彗星を発見した。
1".5-1".8のシーイングの条件下で得た4枚のスタックした45-秒露出w-バンドサーベイの画像では、
集光した2".1(半値全幅:FWHM)の頭部が見え、p.a. 230-290°に4"の広い尾が見える。 
その後、Werykはこの彗星の発見前の画像を三夜分(5月25.6日、29.6日、30.6日 UT)から見つけた。
いずれも19.7-19.9等であった。 5月25日、1".0のシーイングの条件下で得た27-秒のi-バンドサー
ベイ画像では、1".5 (FWHM)の非常に集光した頭部と、西側に2" の尾と思われるものが写っている。 
WerykとR. Wainscoatが、6月9.49日UT、0".8のシーイングの条件下、Maunakeaの3.6-m Canada-
France-Hawaii望遠鏡で得た、3枚の60-秒gri-バンドフォローアップ画像では、1".5 (FWHM)の集光
した頭部と、p.a. 290-310にわたる10"の広い尾が確認された。

彗星機能の報告は次のとおり、

OC   Date        Reporter            Coma    Tail   PA   Comet     Date
                                                        (T/P)   Reported
G96  2026-05-22  D. Rankin           6"                   T   2026-06-08.83
F51  2026-05-25  R. Weryk            0".5      2"  270    T   2026-06-08.79
F51  2026-05-30  R. Weryk            0".5      2"  270    T   2026-06-08.79
F51  2026-06-08  R. Weryk            0".5      4"  230    T   2026-06-08.65
T14  2026-06-09  R. Weryk            0".7     10"  290    T   2026-06-09.50

発見位置は次のとおり、(PCCP P12niTu)

     2026 UT             R.A. (2000) Decl.       Mag.
     June  8.54946   20 43 58.62   - 0 32 02.9   20.0
           8.55832   20 43 58.51   - 0 32 05.7   19.9
           8.56719   20 43 58.42   - 0 32 07.9   20.1
           8.57639   20 43 58.30   - 0 32 10.5   20.2

MPCの楕円軌道要素、位置推算表は次のとおり、

Orbital elements:
    C/2026 L1 (PANSTARRS)                                                       
Epoch 2026 June 9.0 TT = JDT 2461200.5                                          
T 2027 Apr. 11.28698 TT                                 Pike                    
q   4.8801026            (2000.0)            P               Q                  
z  +0.0013240      Peri.  200.57535     +0.71136763     +0.04688962             
 +/-0.0002437      Node   130.50476     -0.44322983     +0.80427285             
e   0.9935388      Incl.   67.26108     -0.54543874     -0.59240742             
From 38 observations 2026 Apr. 8-June 9, mean residual 0".3.                    
                                                                                
Ephemeris:
Date    TT    R. A. (2000) Decl.     Delta      r    Elong.  Phase   m1
2026 05 10    20 44 17.3 +00 58 37   5.3418  5.5209    94.9    10.5  20.3
...
2026 05 25    20 45 22.4 +00 22 32   5.0613  5.4690   108.6    10.1  20.1
...
2026 06 02    20 44 54.5 -00 04 50   4.9188  5.4420   116.1     9.6  20.0
...
2026 06 08    20 44 04.4 -00 29 35   4.8169  5.4221   121.9     9.1  20.0
2026 06 09    20 43 53.7 -00 34 05   4.8004  5.4188   122.9     9.1  19.9
2026 06 10    20 43 42.2 -00 38 41   4.7841  5.4155   123.8     9.0  19.9
...
2026 06 16    20 42 19.1 -01 08 41   4.6897  5.3960   129.7     8.3  19.9
...
2026 06 24    20 39 51.5 -01 55 07   4.5748  5.3705   137.7     7.3  19.8
...
2026 07 09    20 33 35.4 -03 41 59   4.4003  5.3240   152.7     5.0  19.7

(MPEC 2026-L49、CBET 5700)

スレッド表示 | 古いものから 前のトピック | 次のトピック | トップ

投稿するにはまず登録を
 
© 1999 Tsutomu Seki.